Location: Clegg Observatory
(38.9178°N, 78.6069°W)
Time: 06:18:32
(UTC-04:00)

Cosmos 1151 Rocket - Visible Passes

Search period start: 30 September 2014 00:00
Search period end: 10 October 2014 00:00
Orbit: 595 x 618 km, 82.5° (Epoch: 29 September)

Date Brightness Start Highest point End Pass type
(mag) Time Alt. Az. Time Alt. Az. Time Alt. Az.
30 Sep 4.3 19:33:18 10° SE 19:36:16 19° E 19:39:15 10° NE visible
30 Sep 4.8 21:09:49 10° SW 21:13:36 31° WNW 21:17:26 10° NNW visible
01 Oct 3.7 19:45:43 10° SSE 19:49:29 32° E 19:53:17 10° NNE visible
01 Oct 5.7 21:24:08 10° WSW 21:27:08 19° WNW 21:30:10 10° NNW visible
02 Oct 3.0 19:58:36 10° S 20:02:46 57° E 20:06:59 10° NNE visible
02 Oct 6.4 21:39:36 10° W 21:40:45 11° WNW 21:41:55 10° NW visible
03 Oct 6.4 06:08:31 10° NE 06:10:32 13° ENE 06:12:34 10° E visible
03 Oct 3.1 20:11:51 10° S 20:16:07 80° W 20:20:25 10° N visible
04 Oct 5.9 06:20:45 10° NNE 06:24:08 22° ENE 06:27:30 10° SE visible
04 Oct 4.2 20:25:27 10° SSW 20:29:32 44° W 20:33:39 10° N visible
05 Oct 4.9 06:33:36 10° N 06:37:39 36° ENE 06:41:41 10° SE visible
05 Oct 5.3 20:39:27 10° SW 20:43:01 26° WNW 20:46:38 10° NNW visible
06 Oct 3.7 06:46:44 10° N 06:51:06 63° E 06:55:26 10° SSE visible
06 Oct 3.4 19:14:50 10° SSE 19:18:48 39° E 19:22:48 10° NNE visible
06 Oct 6.1 20:54:01 10° WSW 20:56:34 15° WNW 20:59:10 10° NW visible
07 Oct 2.9 19:27:51 10° S 19:32:06 71° E 19:36:23 10° NNE visible
08 Oct 6.2 05:37:19 10° NE 05:40:00 16° ENE 05:42:40 10° ESE visible
08 Oct 3.5 19:41:14 10° SSW 19:45:28 64° W 19:49:45 10° N visible
09 Oct 5.4 05:49:51 10° NNE 05:53:33 26° ENE 05:57:14 10° SE visible
09 Oct 4.7 19:54:57 10° SW 19:58:54 36° WNW 20:02:54 10° N visible
